This is the latest recevied weather packets stored in our database for station/object ON5MM-5. If no packets are shown the sender has not sent any weather packets the latest 10 day(s).
| Time | Temp. | Humidity | Pressure | Rain* | Wind** | Luminosity | Snow |
|---|---|---|---|---|---|---|---|
| 1777756202 | 12.78° C | 89% | 1016.3 hPa | 0 mm | 0.45 m/s, ° | - | - |
| 1777755902 | 12.78° C | 89% | 1016.2 hPa | 0 mm | 0.45 m/s, ° | - | - |
| 1777755603 | 12.78° C | 88% | 1016.3 hPa | 0 mm | 0.45 m/s, ° | - | - |
| 1777755302 | 13.33° C | 88% | 1016.3 hPa | 0 mm | 1.34 m/s, ° | - | - |
| 1777755003 | 13.33° C | 89% | 1016.3 hPa | 0 mm | 0.45 m/s, ° | - | - |
| 1777754703 | 13.33° C | 89% | 1016.3 hPa | 0 mm | 1.34 m/s, ° | - | - |
| 1777754402 | 13.33° C | 89% | 1016.3 hPa | 0 mm | 0.45 m/s, ° | - | - |
| 1777754102 | 13.33° C | 89% | 1016.4 hPa | 0 mm | 1.34 m/s, ° | - | - |
| 1777753802 | 13.33° C | 89% | 1016.4 hPa | 0 mm | 0.89 m/s, ° | - | - |
| 1777753502 | 13.33° C | 89% | 1016.4 hPa | 0 mm | 0.89 m/s, ° | - | - |
| 1777753203 | 13.33° C | 89% | 1016.5 hPa | 0 mm | 0.89 m/s, ° | - | - |
| 1777752903 | 13.33° C | 89% | 1016.4 hPa | 0 mm | 0 m/s | - | - |
| 1777752602 | 13.33° C | 89% | 1016.4 hPa | 0 mm | 0.45 m/s, ° | - | - |
| 1777752302 | 13.33° C | 88% | 1016.5 hPa | 0 mm | 0.45 m/s, ° | - | - |
| 1777752002 | 13.33° C | 88% | 1016.5 hPa | 0 mm | 1.34 m/s, ° | - | - |
| 1777751703 | 13.33° C | 88% | 1016.5 hPa | 0 mm | 0.89 m/s, ° | - | - |
| 1777751403 | 13.33° C | 88% | 1016.5 hPa | 0 mm | 1.79 m/s, ° | - | - |
| 1777751102 | 13.33° C | 88% | 1016.5 hPa | 0 mm | 0 m/s | - | - |
| 1777750803 | 13.33° C | 88% | 1016.5 hPa | 0 mm | 0 m/s | - | - |
| 1777750503 | 13.33° C | 87% | 1016.6 hPa | 0 mm | 0 m/s | - | - |
| 1777750202 | 13.33° C | 87% | 1016.7 hPa | 0 mm | 0 m/s | - | - |
| 1777749902 | 13.33° C | 87% | 1016.7 hPa | 0 mm | 0.45 m/s, ° | - | - |
| 1777749602 | 13.33° C | 87% | 1016.7 hPa | 0 mm | 0.89 m/s, ° | - | - |
| 1777749302 | 13.33° C | 86% | 1016.5 hPa | 0 mm | 0 m/s | - | - |
| 1777749002 | 13.33° C | 86% | 1016.7 hPa | 0 mm | 0 m/s | - | - |
* Rain latest hour (hover to see other rain measurements)
** Current wind speed in m/s (hover to see current wind gust speed)